Tracking 28790 objects as of 19-Apr-2024
HD Live streaming from Space Station
objects crossing your sky now

PSLV R/B

Track PSLV R/B now!
10-day predictions
PSLV R/B is classified as:


NORAD ID: 41470
Int'l Code: 2016-027B
Perigee: 317.0 km
Apogee: 19,814.8 km
Inclination: 17.8 °
Period: 349.5 minutes
Semi major axis: 16436 km
RCS: Unknown
Launch date: April 28, 2016
Source: India (IND)
Launch site: SRIHARIKOTA (SRI)

Note: This is a ROCKET BODY
Your satellite tracking list
Your tracking list is empty




NASA's NSSDC Master Catalog

Two Line Element Set (TLE):
1 41470U 16027B   24109.13982885  .00003692  00000-0  11012-2 0  9999
2 41470  17.8214 113.8712 5931125 162.5193 232.8713  4.11977899116602
Source of the keplerian elements: AFSPC